Weather History for Wooster, OH

Change the Weather History Date:

Saturday, January 19, 2013

  Actual Average Record
Temperature  
Mean Temperature 40 °F -  
Max Temperature 48 °F 28 °F 50 °F (2006)
Min Temperature 32 °F 14 °F -5 °F (2009)
Degree Days  
Heating Degree Days 25    
Moisture  
Dew Point 23 °F    
Average Humidity 50    
Maximum Humidity 61    
Minimum Humidity 41    
Precipitation  
Precipitation 0.00 in - - ()
Sea Level Pressure  
Sea Level Pressure 30.00 in    
Wind  
Wind Speed 19 mph (SW)    
Max Wind Speed 25 mph    
Max Gust Speed 37 mph    
Visibility 10 miles    
Events      
Averages and records for this station are not official NWS values.
T = Trace of Precipitation, MM = Missing Value Source: NWS Daily Summary

Daily Weather History Graph

Daily Weather History Graph

Search for Another Location

Airport:

Trip Planner

Search our weather history database for the weather conditions in past years. The results will help you decide how hot, cold, wet, or windy it might be!

Date:

Astronomy

Jan. 19, 2013 Rise Set
Actual Time 7:47 AM EST 5:29 PM EST
Civil Twilight 7:17 AM EST 5:59 PM EST
Nautical Twilight 6:44 AM EST 6:32 PM EST
Astronomical Twilight 6:11 AM EST 7:05 PM EST
Moon 11:55 AM EST (1/19) 1:20 AM EST (1/19)
Length of Visible Light 10h 41m
Length of Day
9h 41m
First Quarter, 57% of the Moon is Illuminated
Jan 19
First Quarter
Jan 26
Full
Feb 3
Last Quarter
Feb 10
New
Feb 17
First Quarter

Hourly Weather History & Observations

Time (EST) Temp. Windchill Dew Point Humidity Pressure Visibility Wind Dir Wind Speed Gust Speed Precip Events Conditions
12:56 AM 32.0 °F 20.8 °F 19.9 °F 61% 30.15 in 10.0 mi SSW 17.3 mph 26.5 mph N/A   Clear
1:56 AM 33.1 °F 22.6 °F 19.9 °F 59% 30.16 in 10.0 mi SW 16.1 mph - N/A   Clear
2:56 AM 33.1 °F 24.4 °F 19.9 °F 59% 30.16 in 10.0 mi SSW 11.5 mph - N/A   Clear
3:56 AM 35.1 °F 26.9 °F 19.9 °F 54% 30.14 in 10.0 mi SW 11.5 mph - N/A   Clear
4:56 AM 36.0 °F 25.3 °F 19.9 °F 52% 30.12 in 10.0 mi SW 19.6 mph 25.3 mph N/A   Clear
5:56 AM 35.1 °F 24.1 °F 19.9 °F 54% 30.12 in 10.0 mi SW 19.6 mph 26.5 mph N/A   Clear
6:56 AM 35.1 °F 23.8 °F 21.0 °F 57% 30.12 in 10.0 mi SW 20.7 mph 27.6 mph N/A   Clear
7:56 AM 35.1 °F 24.5 °F 21.9 °F 59% 30.12 in 10.0 mi SW 18.4 mph 24.2 mph N/A   Clear
8:56 AM 37.0 °F 26.7 °F 21.9 °F 54% 30.12 in 10.0 mi SW 19.6 mph 26.5 mph N/A   Clear
9:56 AM 39.9 °F 29.2 °F 21.9 °F 49% 30.12 in 10.0 mi SW 25.3 mph 28.8 mph N/A   Clear
10:56 AM 42.1 °F 32.6 °F 24.1 °F 49% 30.09 in 10.0 mi SW 23.0 mph 33.4 mph N/A   Clear
11:56 AM 45.0 °F 36.6 °F 25.0 °F 46% 30.05 in 10.0 mi SW 21.9 mph 28.8 mph N/A   Clear
12:56 PM 46.0 °F 37.8 °F 26.1 °F 46% 30.01 in 10.0 mi SW 23.0 mph 28.8 mph N/A   Clear
1:56 PM 46.9 °F - 27.0 °F 46% 29.97 in 10.0 mi SW 13.8 mph 31.1 mph N/A   Clear
2:56 PM 48.0 °F - 27.0 °F 44% 29.94 in 10.0 mi SSW 23.0 mph 36.8 mph N/A   Clear
3:56 PM 48.0 °F - 26.1 °F 42% 29.91 in 10.0 mi SW 21.9 mph 29.9 mph N/A   Clear
4:56 PM 46.9 °F - 24.1 °F 41% 29.87 in 10.0 mi SSW 19.6 mph 28.8 mph N/A   Clear
5:56 PM 46.0 °F 38.8 °F 24.1 °F 42% 29.84 in 10.0 mi SSW 18.4 mph 25.3 mph N/A   Clear
6:56 PM 46.0 °F 38.8 °F 25.0 °F 44% 29.86 in 10.0 mi SW 18.4 mph 31.1 mph N/A   Clear
7:56 PM 46.0 °F 38.3 °F 25.0 °F 44% 29.85 in 10.0 mi SW 20.7 mph 27.6 mph N/A   Clear
8:56 PM 45.0 °F 36.2 °F 25.0 °F 46% 29.83 in 10.0 mi SW 24.2 mph 31.1 mph N/A   Clear
9:56 PM 44.1 °F 35.2 °F 26.1 °F 49% 29.81 in 10.0 mi SW 23.0 mph 29.9 mph N/A   Clear
10:56 PM 43.0 °F 34.0 °F 26.1 °F 51% 29.79 in 10.0 mi SW 21.9 mph 29.9 mph N/A   Clear
11:56 PM 43.0 °F 34.2 °F 27.0 °F 53% 29.76 in 10.0 mi WSW 20.7 mph 35.7 mph N/A   Partly Cloudy